Das Wetter in  D-61279 Heinzenberg / Taunus





Wetter Minimum- & Maximum-Werte im Januar 2014

Standort: Heinzenberg / Taunus - Höhe 297 m         8° 24' 1" Ost 50° 21' 51" Nord
(   3-stündige Aktualisierung    letzte Aktualisierung um 20:46 am 31.01.2014  )


Messgrösse

Minimum

Maximum

Durchschnitt

Temperatur West /
Luftfeuchte West
Anklicken für Monats-Diagramm

-3,8 °C

01:09
13.01.2014

65 %

14:53
27.01.2014

12,1 °C

14:00
08.01.2014

93 %

08:35
24.01.2014

Temp

4,0 °C

Feuchte

84 %

Temperatur Ost /
Luftfeuchte Ost
Anklicken für Monats-Diagramm

-3,5 °C

00:59
13.01.2014

--

--
--

12,2 °C

14:05
08.01.2014

--

--
--

3,9 °C

--

Luftdruck Anklicken für Monats-Diagramm

992,9 hPa

02:48
27.01.2014

1027,7 hPa

09:03
12.01.2014

1009,8 hPa

Taupunkt

-5,8 °C

01:09
13.01.2014

7,7 °C

04:40
08.01.2014

1,4 °C

Windchill
( gefühlte Temperatur )

-13,6 °C

05:32
26.01.2014

10,2 °C

16:30
08.01.2014

0,6 °C

Windgeschwindigkeit /
Windrichtung
Anklicken für Monats-Diagramm

---

51,0 km/h / W-SW

21:05
03.01.2014

9,9 km/h
W-SW

Helligkeit /
Sonnenschein
Anklicken für Monats-Diagramm
Anklicken für Monats-Diagramm

Sonnenschein:

54:20 Stunden

Max: 6:35 Std am
17.01.2014

48,5 klux

12:33
27.01.2014

9,1 klux

Solarstrahlung Anklicken für Monats-Diagramm

---

332 W/m²

12:33
27.01.2014

70 W/m²

Regenmenge
    Januar 2014
Anklicken für Monats-Diagramm

Insgesamt 36,0 l/m²

in 59:23 Stunden
an 19 Tagen

8,1 l/m²

23:03
26.01.2014

Gesamtmenge

36,0 l/m²

Regen-Tage
    Januar 2014
Anklicken für Monats-Diagramm

>   0 mm/Tag

>   2 mm/Tag

>   5 mm/Tag

> 10 mm/Tag

> 20 mm/Tag

19 Tage     
6 Tage     
  1 Tag     
0 Tage     
0 Tage     

Eisige Tage Januar 2014 / 2013

Tmin ≤ -10°C     

0 Tage

/

  1 Tag

Eistage Januar 2014 / 2013

Tmax <     0°C     

0 Tage

/

14 Tage

Frosttage Januar 2014 / 2013

Tmin ≤     0°C     

7 Tage

/

17 Tage

Kalte Tage Januar 2014 / 2013

Tmax <   10°C     

25 Tage

/

30 Tage

Warme Tage Januar 2014 / 2013

Tmax ≥   20°C     

0 Tage

/

0 Tage

Sommertage Januar 2014 / 2013

Tmax ≥   25°C     

0 Tage

/

0 Tage

Heisse Tage Januar 2014 / 2013

Tmax ≥   30°C     

0 Tage

/

0 Tage


Monatsdiagramm Januar 2014

Die Kurven zeigen den Durchschnittswert des jeweiligen Tages an


Wetter-Monatsübersicht Januar 2014
Datum
  Temperatur
   Luftdruck
   Wind
  Regen
   Luftfeuchte
   Helligkeit

Sonnen-
schein

Ø
Temp.

Min.
Temp.

Max.
Temp.

Ø
Luftdruck

Min.
Luftdruck

Max.
Luftdruck

Ø-Geschw.
Haupt-Richtg.

Max.
Wind

Menge /
Dauer

Ø
Feuchte

Min.
Feuchte

Max.
Feuchte

Ø
Helligkeit

Max.
Helligkeit

1.
Januar
4,8 °C0,0 °C
01:57
7,6 °C
14:48
1011,7 hPa1005,9 hPa
23:44
1014,5 hPa
09:53
11,8 km/h
SW
27,5 km/h
20:28  
0,2 l/m²
45 Minuten
79 %74 %
04:12
84 %
10:33
11,4 klux38,1 klux
12:58
2:15 Std 
2.
Januar
7,2 °C5,7 °C
21:59
8,6 °C
02:59
1004,8 hPa1001,6 hPa
08:34
1010,2 hPa
22:45
18,2 km/h
W-SW
38,4 km/h
08:09  
0,9 l/m²
2:20 Stunden
80 %70 %
03:09
86 %
12:59
4,7 klux19,4 klux
12:09
--- 
3.
Januar
7,9 °C5,5 °C
01:40
10,1 °C
21:00
1008,6 hPa1007,6 hPa
20:20
1010,8 hPa
23:56
17,6 km/h
W-SW
51,0 km/h
21:05  
---
81 %69 %
23:46
85 %
02:05
4,6 klux20,7 klux
14:10
5 Min 
4.
Januar
6,9 °C5,4 °C
10:11
8,9 °C
00:01
1006,2 hPa998,5 hPa
22:22
1013,1 hPa
04:01
11,6 km/h
O-SO
35,1 km/h
01:06  
---
10 Minuten
79 %66 %
00:16
86 %
19:51
3,9 klux11,7 klux
13:11
--- 
5.
Januar
5,3 °C3,5 °C
18:12
7,4 °C
15:27
1007,8 hPa998,6 hPa
00:02
1014,6 hPa
18:17
11,3 km/h
W
29,6 km/h
08:42  
4,4 l/m²
3:40 Stunden
83 %69 %
15:37
90 %
04:47
12,3 klux41,7 klux
12:32
2:55 Std 
6.
Januar
7,2 °C3,5 °C
00:03
11,0 °C
17:33
1010,9 hPa1009,5 hPa
17:53
1013,6 hPa
00:03
18,2 km/h
W-SW
33,7 km/h
11:08  
3,5 l/m²
3:41 Stunden
78 %72 %
16:43
87 %
23:24
5,0 klux16,9 klux
13:03
--- 
7.
Januar
9,3 °C7,5 °C
03:59
11,1 °C
16:04
1014,9 hPa1010,9 hPa
00:24
1017,0 hPa
10:29
23,8 km/h
W-SW
41,3 km/h
12:39  
0,9 l/m²
2:16 Stunden
79 %69 %
15:44
89 %
01:14
14,2 klux35,4 klux
12:34
4:00 Std 
8.
Januar
9,2 °C4,9 °C
21:55
12,1 °C
14:00
1018,8 hPa1015,8 hPa
00:00
1020,9 hPa
11:10
15,6 km/h
W-SW
38,1 km/h
08:25  
0,2 l/m²
20 Minuten
79 %67 %
13:10
87 %
23:20
17,5 klux44,3 klux
12:55
5:10 Std 
9.
Januar
8,8 °C5,5 °C
00:05
10,9 °C
14:50
1011,2 hPa1006,4 hPa
14:55
1018,5 hPa
00:05
22,9 km/h
W-SW
44,7 km/h
09:35  
1,5 l/m²
3:05 Stunden
80 %67 %
23:56
89 %
01:20
5,5 klux17,6 klux
10:40
--- 
10.
Januar
4,4 °C1,0 °C
23:57
7,6 °C
15:01
1017,8 hPa1013,3 hPa
00:01
1020,1 hPa
21:21
15,2 km/h
W
37,4 km/h
12:36  
---
77 %67 %
00:06
85 %
22:01
15,3 klux42,9 klux
12:46
4:15 Std 
11.
Januar
2,1 °C-1,8 °C
05:37
8,2 °C
15:02
1019,1 hPa1016,1 hPa
15:02
1025,1 hPa
23:38
8,8 km/h
W
35,8 km/h
17:42  
0,5 l/m²
45 Minuten
85 %73 %
15:47
91 %
12:37
12,2 klux35,4 klux
11:27
2:55 Std 
12.
Januar
0,9 °C-3,3 °C
23:44
6,4 °C
15:03
1024,4 hPa1018,6 hPa
23:29
1027,7 hPa
09:03
1,6 km/h
SO
10,3 km/h
08:08  
---
84 %71 %
16:08
90 %
10:38
17,6 klux38,8 klux
12:58
6:30 Std 
13.
Januar
2,5 °C-3,8 °C
01:09
6,6 °C
15:09
1014,3 hPa1010,4 hPa
23:40
1018,7 hPa
01:09
4,4 km/h
W-SW
19,0 km/h
08:09  
---
88 %85 %
15:29
91 %
10:29
4,8 klux13,9 klux
13:24
--- 
14.
Januar
3,4 °C1,1 °C
04:00
5,7 °C
14:45
1008,4 hPa1006,0 hPa
14:15
1010,7 hPa
23:56
1,6 km/h
SO
18,1 km/h
07:55  
---
90 %87 %
16:55
92 %
10:05
4,5 klux13,2 klux
11:50
--- 
15.
Januar
2,8 °C1,0 °C
09:16
3,5 °C
12:31
1010,7 hPa1007,3 hPa
22:57
1012,8 hPa
09:16
9,9 km/h
W-SW
23,6 km/h
18:21  
0,9 l/m²
2:50 Stunden
86 %79 %
12:46
91 %
03:41
10,2 klux35,1 klux
11:56
2:25 Std 
16.
Januar
5,8 °C3,4 °C
00:02
8,2 °C
15:07
1004,0 hPa1000,7 hPa
16:17
1007,3 hPa
00:02
9,3 km/h
SW
25,8 km/h
20:27  
4,0 l/m²
7:40 Stunden
85 %72 %
14:47
90 %
05:47
3,5 klux8,0 klux
13:57
--- 
17.
Januar
6,6 °C4,5 °C
23:59
10,0 °C
15:38
1003,3 hPa1002,4 hPa
15:38
1005,1 hPa
23:59
11,9 km/h
W-SW
31,3 km/h
13:18  
---
80 %70 %
15:18
88 %
03:43
20,45 klux38,40 klux
11:03
6:35 Std 
18.
Januar
3,2 °C-0,8 °C
05:44
6,5 °C
13:59
1004,0 hPa1001,1 hPa
22:35
1005,8 hPa
05:44
5,3 km/h
O-SO
24,3 km/h
18:49  
---
83 %75 %
14:49
88 %
06:44
11,2 klux28,1 klux
11:24
1:10 Std 
19.
Januar
3,1 °C1,4 °C
00:35
4,7 °C
14:15
1001,4 hPa1000,1 hPa
05:20
1002,3 hPa
10:05
2,1 km/h
O-SO
12,8 km/h
14:55  
---
86 %82 %
14:35
88 %
00:55
5,3 klux11,7 klux
14:00
--- 
20.
Januar
2,4 °C1,8 °C
23:52
3,5 °C
00:51
1004,4 hPa1001,1 hPa
01:21
1008,6 hPa
23:52
2,0 km/h
NO
15,3 km/h
02:01  
---
89 %88 %
00:01
91 %
21:56
2,2 klux7,2 klux
12:01
--- 
21.
Januar
1,5 °C0,5 °C
08:37
1,9 °C
01:17
1011,7 hPa1008,6 hPa
01:17
1013,8 hPa
23:53
4,0 km/h
W-NW
14,4 km/h
15:42  
4,3 l/m²
7:15 Stunden
91 %90 %
14:22
92 %
02:27
4,23 klux14,10 klux
12:12
--- 
22.
Januar
2,8 °C1,7 °C
00:03
4,3 °C
15:03
1013,9 hPa1012,4 hPa
14:28
1015,7 hPa
22:39
0,1 km/h
O-SO
5,8 km/h
16:03  
---
15 Minuten
92 %91 %
15:53
92 %
00:03
3,0 klux6,9 klux
12:33
--- 
23.
Januar
2,8 °C1,2 °C
20:04
4,5 °C
14:14
1014,5 hPa1010,6 hPa
23:45
1016,7 hPa
10:39
4,1 km/h
W-SW
21,5 km/h
14:54  
1,8 l/m²
2:50 Stunden
89 %82 %
14:29
92 %
05:09
4,67 klux16,40 klux
11:54
--- 
24.
Januar
1,9 °C0,5 °C
04:54
2,5 °C
14:00
1014,9 hPa1009,6 hPa
01:00
1020,0 hPa
23:46
2,8 km/h
NW
14,2 km/h
03:30  
3,0 l/m²
7:05 Stunden
92 %90 %
00:00
93 %
08:35
1,9 klux6,5 klux
13:35
--- 
25.
Januar
0,8 °C0,0 °C
18:11
1,9 °C
15:46
1018,1 hPa1007,7 hPa
23:57
1021,3 hPa
09:26
3,9 km/h
O-SO
30,5 km/h
22:16  
1,5 l/m²
1:30 Stunden
90 %86 %
22:22
92 %
00:01
4,53 klux11,50 klux
14:46
--- 
26.
Januar
2,8 °C0,5 °C
00:02
5,2 °C
13:42
1006,4 hPa994,1 hPa
23:53
1011,6 hPa
09:42
21,2 km/h
W
50,3 km/h
05:32  
8,1 l/m²
9:56 Stunden
85 %70 %
14:47
92 %
01:42
7,8 klux45,3 klux
13:32
20 Min 
27.
Januar
2,8 °C1,4 °C
17:38
5,8 °C
14:38
997,2 hPa992,9 hPa
02:48
1000,2 hPa
23:38
16,2 km/h
W-SW
34,9 km/h
04:48  
0,5 l/m²
2:45 Stunden
83 %65 %
14:53
90 %
02:33
14,5 klux48,5 klux
12:33
3:00 Std 
28.
Januar
2,6 °C0,3 °C
22:30
6,1 °C
15:04
1001,0 hPa999,7 hPa
15:04
1002,5 hPa
08:29
10,8 km/h
O-SO
30,8 km/h
11:39  
---
15 Minuten
82 %69 %
15:04
87 %
08:39
11,9 klux45,5 klux
14:15
1:55 Std 
29.
Januar
0,5 °C-0,2 °C
08:20
1,5 °C
13:15
1002,7 hPa1001,5 hPa
00:25
1005,7 hPa
23:46
12,9 km/h
O-SO
31,1 km/h
03:25  
---
79 %76 %
13:20
86 %
00:00
5,1 klux26,8 klux
13:10
--- 
30.
Januar
-0,1 °C-2,3 °C
22:32
3,0 °C
14:46
1007,8 hPa1005,7 hPa
00:01
1009,1 hPa
21:16
5,5 km/h
O-SO
27,5 km/h
10:41  
---
77 %70 %
15:41
84 %
23:42
17,7 klux36,9 klux
13:16
4:35 Std 
31.
Januar
0,7 °C-2,2 °C
09:07
6,4 °C
15:57
1009,3 hPa1007,7 hPa
22:38
1011,1 hPa
09:52
2,2 km/h
SO
14,6 km/h
22:02  
---
79 %66 %
16:12
86 %
09:12
19,8 klux37,8 klux
12:52
6:15 Std 



Januar
2014

Temperatur

  

Luftdruck

  

Wind

  

Regen

  

Luftfeuchte

  

Helligkeit

Sonnen-
schein

Ø

Min

Max

Ø

Min

Max

Ø

Max

Max

Ø

Min

Max

Ø

Max

Max

4,0 °C

-3,8 °C

01:09 Uhr
13.01.2014

12,1 °C

14:00 Uhr
08.01.2014

1009,8 hPa

992,9 hPa

02:48 Uhr
27.01.2014

1027,7 hPa

09:03 Uhr
12.01.2014

9,9 km/h

W-SW

51,0 km/h

21:05 Uhr
03.01.2014

8,1 l/m²

9:56 Stunden
26.01.2014

84 %

65 %

14:53 Uhr
27.01.2014

93 %

08:35 Uhr
24.01.2014

9,1 klux

48,5 klux

12:33 Uhr
27.01.2014

6:35 Std

am
17.01.2014

Gesamt

Gesamt

36,0 l/m²

19 Tage
59:23 h

54:20 Std


Wetter-Diagramme Januar 2014     Heinzenberg / Taunus   
TemperaturLuftfeuchte
SolarstrahlungLuftdruck
HelligkeitSonnenschein
RegenmengeRegendauer
Wind-GeschwindigkeitWind-Richtung